Camp Douglas, WI

6:53 PM CST on December 04, 2016 (GMT -0600)
Volk

Weather History for KVOK - October, 2010

Change the Weather History Date:

Monday, October 4, 2010

  Actual Average Record
Temperature  
Mean Temperature 44 °F -  
Max Temperature 62 °F 60 °F 86 °F (2005)
Min Temperature 26 °F 43 °F 23 °F (2008)
Degree Days  
Heating Degree Days 22    
Moisture  
Dew Point 30 °F    
Average Humidity 90    
Maximum Humidity 100    
Minimum Humidity 36    
Precipitation  
Precipitation 0.00 in - - ()
Sea Level Pressure  
Sea Level Pressure 30.41 in    
Wind  
Wind Speed 0 mph (SE)    
Max Wind Speed 8 mph    
Max Gust Speed -    
Visibility 5 miles    
Events Fog    
Averages and records for this station are not official NWS values.
T = Trace of Precipitation, MM = Missing Value Source: NWS Daily Summary

Daily Weather History Graph

Daily Weather History Graph

Search for Another Location

Airport or City:

Trip Planner

Search our weather history database for the weather conditions in past years. The results will help you decide how hot, cold, wet, or windy it might be!

Date:

Astronomy

Oct. 04, 2010 Rise Set
Actual Time 7:02 AM CDT 6:36 PM CDT
Civil Twilight 6:33 AM CDT 7:05 PM CDT
Nautical Twilight 6:00 AM CDT 7:38 PM CDT
Astronomical Twilight 5:26 AM CDT 8:12 PM CDT
Moon 3:03 AM CDT (10/4) 4:40 PM CDT (10/4)
Length of Visible Light 12h 31m
Length of Day
11h 34m
Waning Crescent, 14% of the Moon is Illuminated
Oct 4
Waning Crescent
Oct 7
New
Oct 14
First Quarter
Oct 22
Full
Oct 30
Last Quarter

Hourly Weather History & Observations

Time (CDT) Temp. Windchill Dew Point Humidity Pressure Visibility Wind Dir Wind Speed Gust Speed Precip Events Conditions
12:55 AM 29.7 °F - 29.5 °F 99% 30.41 in 7.0 mi Calm Calm - N/A   Clear
1:05 AM 30.2 °F - 28.4 °F 93% 30.41 in 2.5 mi Calm Calm - N/A   Clear
1:06 AM 28.4 °F - 28.4 °F 100% 30.42 in 2.0 mi Calm Calm - N/A   Clear
1:07 AM 28.4 °F - 28.4 °F 100% 30.42 in 1.8 mi Calm Calm - N/A   Clear
1:08 AM 28.4 °F - 28.4 °F 100% 30.42 in 1.5 mi Calm Calm - N/A   Clear
1:10 AM 28.4 °F - 28.4 °F 100% 30.42 in 1.2 mi Calm Calm - N/A   Clear
1:12 AM 28.4 °F - 28.4 °F 100% 30.42 in 1.0 mi Calm Calm - N/A   Clear
1:15 AM 30.2 °F - 28.4 °F 93% 30.42 in 0.8 mi Calm Calm - N/A   Clear
1:21 AM 28.4 °F - 28.4 °F 100% 30.42 in 0.5 mi Calm Calm - N/A Fog Light Freezing Fog
1:49 AM 28.4 °F - 28.4 °F 100% 30.42 in 0.2 mi Calm Calm - N/A Fog Light Freezing Fog
1:54 AM 28.4 °F - 28.4 °F 100% 30.42 in 0.5 mi Calm Calm - N/A Fog Light Freezing Fog
1:55 AM 28.6 °F - 28.4 °F 99% 30.42 in 0.5 mi Calm Calm - N/A Fog Light Freezing Fog
2:18 AM 28.4 °F - 28.4 °F 100% 30.42 in 0.8 mi Calm Calm - N/A   Clear
2:20 AM 28.4 °F - 28.4 °F 100% 30.42 in 1.0 mi Calm Calm - N/A   Clear
2:21 AM 28.4 °F - 28.4 °F 100% 30.42 in 1.2 mi Calm Calm - N/A   Clear
2:22 AM 28.4 °F - 28.4 °F 100% 30.42 in 1.5 mi Calm Calm - N/A   Clear
2:23 AM 28.4 °F - 28.4 °F 100% 30.42 in 2.0 mi Calm Calm - N/A   Clear
2:24 AM 28.4 °F - 28.4 °F 100% 30.42 in 3.0 mi Calm Calm - N/A   Clear
2:55 AM 29.3 °F - 29.1 °F 99% 30.41 in 7.0 mi Calm Calm - N/A   Clear
3:46 AM 28.4 °F - 28.4 °F 100% 30.42 in 2.5 mi Calm Calm - N/A   Clear
3:47 AM 28.4 °F - 28.4 °F 100% 30.42 in 2.0 mi Calm Calm - N/A   Clear
3:48 AM 28.4 °F - 28.4 °F 100% 30.42 in 1.8 mi Calm Calm - N/A   Clear
3:49 AM 28.4 °F - 28.4 °F 100% 30.42 in 1.5 mi Calm Calm - N/A   Clear
3:50 AM 28.4 °F - 28.4 °F 100% 30.42 in 1.2 mi Calm Calm - N/A   Clear
3:51 AM 28.4 °F - 28.4 °F 100% 30.42 in 1.0 mi Calm Calm - N/A   Clear
3:55 AM 28.0 °F - 27.9 °F 99% 30.42 in 1.0 mi Calm Calm - N/A   Clear
4:06 AM 28.4 °F - 28.4 °F 100% 30.42 in 0.8 mi Calm Calm - N/A   Clear
4:22 AM 26.6 °F - 26.6 °F 100% 30.42 in 1.0 mi Calm Calm - N/A   Clear
4:28 AM 26.6 °F - 26.6 °F 100% 30.42 in 1.2 mi Calm Calm - N/A   Clear
4:31 AM 26.6 °F - 26.6 °F 100% 30.42 in 1.5 mi Calm Calm - N/A   Clear
4:32 AM 28.4 °F - 26.6 °F 93% 30.42 in 1.8 mi Calm Calm - N/A   Clear
4:34 AM 28.4 °F - 26.6 °F 93% 30.42 in 2.0 mi Calm Calm - N/A   Clear
4:35 AM 28.4 °F - 26.6 °F 93% 30.42 in 2.5 mi Calm Calm - N/A   Clear
4:37 AM 28.4 °F - 26.6 °F 93% 30.42 in 3.0 mi Calm Calm - N/A   Clear
4:55 AM 27.9 °F - 27.7 °F 99% 30.43 in 10.0 mi Calm Calm - N/A   Clear
5:34 AM 26.6 °F - 26.6 °F 100% 30.43 in 2.5 mi Calm Calm - N/A   Clear
5:39 AM 26.6 °F - 26.6 °F 100% 30.43 in 3.0 mi Calm Calm - N/A   Clear
5:55 AM 27.1 °F - 26.8 °F 99% 30.44 in 10.0 mi Calm Calm - N/A   Clear
6:00 AM 26.6 °F 22.6 °F 26.6 °F 100% 30.44 in 2.5 mi ESE 3.5 mph - N/A   Clear
6:02 AM 26.6 °F 22.6 °F 26.6 °F 100% 30.44 in 2.0 mi ESE 3.5 mph - N/A   Clear
6:06 AM 26.6 °F 22.6 °F 26.6 °F 100% 30.44 in 2.5 mi ESE 3.5 mph - N/A   Clear
6:08 AM 26.6 °F 22.6 °F 26.6 °F 100% 30.44 in 3.0 mi ESE 3.5 mph - N/A   Clear
6:55 AM 26.8 °F - 26.6 °F 99% 30.45 in 10.0 mi Calm Calm - N/A   Clear
7:55 AM 30.2 °F 26.7 °F 30.2 °F 100% 30.47 in 10.0 mi ESE 3.5 mph - N/A   Clear
8:55 AM 37.4 °F - 37.4 °F 100% 30.47 in 10.0 mi Calm Calm - N/A   Clear
9:55 AM 48.2 °F - 42.8 °F 82% 30.46 in 10.0 mi Calm Calm - N/A   Clear
10:55 AM 55.4 °F - 37.4 °F 51% 30.45 in 10.0 mi Calm Calm - N/A   Clear
11:55 AM 57.2 °F - 33.8 °F 41% 30.44 in 10.0 mi South 6.9 mph - N/A   Clear
12:55 PM 59.0 °F - 37.4 °F 45% 30.43 in 10.0 mi SSE 8.1 mph - N/A   Partly Cloudy
1:55 PM 60.8 °F - 35.6 °F 39% 30.40 in 10.0 mi Calm Calm - N/A   Partly Cloudy
2:55 PM 60.8 °F - 35.6 °F 39% 30.38 in 10.0 mi Calm Calm - N/A   Partly Cloudy
3:55 PM 60.8 °F - 35.6 °F 39% 30.36 in 10.0 mi SSW 5.8 mph - N/A   Clear
4:55 PM 61.9 °F - 34.7 °F 36% 30.35 in 10.0 mi West 3.5 mph - N/A   Clear
5:55 PM 58.5 °F - 37.8 °F 46% 30.35 in 10.0 mi WSW 3.5 mph - N/A   Clear
6:55 PM 50.0 °F - 39.4 °F 67% 30.34 in 10.0 mi Calm Calm - N/A   Clear
7:55 PM 39.7 °F - 38.7 °F 96% 30.35 in 10.0 mi Calm Calm - N/A   Clear
8:55 PM 36.9 °F - 36.7 °F 99% 30.35 in 10.0 mi Calm Calm - N/A   Clear
9:55 PM 36.5 °F - 36.1 °F 99% 30.34 in 10.0 mi Calm Calm - N/A   Clear
10:55 PM 34.0 °F - 33.8 °F 99% 30.35 in 10.0 mi Calm Calm - N/A   Clear
11:55 PM 33.6 °F 30.6 °F 33.4 °F 99% 30.35 in 10.0 mi East 3.5 mph - N/A   Clear